Year,Month,Day,Hour,Minute,Value (Times are PST for temperature in C)
2019,03,29,00,00,6.70
2019,03,29,00,01,6.70
2019,03,29,00,02,6.60
2019,03,29,00,03,6.60
2019,03,29,00,04,6.60
2019,03,29,00,05,6.60
2019,03,29,00,06,6.50
2019,03,29,00,07,6.50
2019,03,29,00,08,6.50
2019,03,29,00,09,6.40
2019,03,29,00,10,6.50
2019,03,29,00,11,6.50
2019,03,29,00,12,6.50
2019,03,29,00,13,6.60
2019,03,29,00,14,6.60
2019,03,29,00,15,6.60
2019,03,29,00,16,6.60
2019,03,29,00,17,6.60
2019,03,29,00,18,6.70
2019,03,29,00,19,6.70
2019,03,29,00,20,6.70
2019,03,29,00,21,6.70
2019,03,29,00,22,6.60
2019,03,29,00,23,6.60
2019,03,29,00,24,6.60
2019,03,29,00,25,6.50
2019,03,29,00,26,6.50
2019,03,29,00,27,6.40
2019,03,29,00,28,6.40
2019,03,29,00,29,6.40
2019,03,29,00,30,6.40
2019,03,29,00,31,6.40
2019,03,29,00,32,6.40
2019,03,29,00,33,6.40
2019,03,29,00,34,6.40
2019,03,29,00,35,6.40
2019,03,29,00,36,6.30
2019,03,29,00,37,6.30
2019,03,29,00,38,6.30
2019,03,29,00,39,6.30
2019,03,29,00,40,6.30
2019,03,29,00,41,6.20
2019,03,29,00,42,6.20
2019,03,29,00,43,6.20
2019,03,29,00,44,6.20
2019,03,29,00,45,6.20
2019,03,29,00,46,6.20
2019,03,29,00,47,6.20
2019,03,29,00,48,6.10
2019,03,29,00,49,6.10
2019,03,29,00,50,6.10
2019,03,29,00,51,6.10
2019,03,29,00,52,6.00
2019,03,29,00,53,6.00
2019,03,29,00,54,5.90
2019,03,29,00,55,5.90
2019,03,29,00,56,5.80
2019,03,29,00,57,5.80
2019,03,29,00,58,5.80
2019,03,29,00,59,5.80
2019,03,29,01,00,5.70
2019,03,29,01,01,5.70
2019,03,29,01,02,5.70
2019,03,29,01,03,5.70
2019,03,29,01,04,5.70
2019,03,29,01,05,5.60
2019,03,29,01,06,5.60
2019,03,29,01,07,5.60
2019,03,29,01,08,5.60
2019,03,29,01,09,5.60
2019,03,29,01,10,5.60
2019,03,29,01,11,5.60
2019,03,29,01,12,5.60
2019,03,29,01,13,5.50
2019,03,29,01,14,5.50
2019,03,29,01,15,5.50
2019,03,29,01,16,5.50
2019,03,29,01,17,5.50
2019,03,29,01,18,5.40
2019,03,29,01,19,5.40
2019,03,29,01,20,5.40
2019,03,29,01,21,5.40
2019,03,29,01,22,5.40
2019,03,29,01,23,5.40
2019,03,29,01,24,5.50
2019,03,29,01,25,5.50
2019,03,29,01,26,5.40
2019,03,29,01,27,5.40
2019,03,29,01,28,5.40
2019,03,29,01,29,5.50
2019,03,29,01,30,5.50
2019,03,29,01,31,5.50
2019,03,29,01,32,5.50
2019,03,29,01,33,5.50
2019,03,29,01,34,5.50
2019,03,29,01,35,5.50
2019,03,29,01,36,5.50
2019,03,29,01,37,5.50
2019,03,29,01,38,5.60
2019,03,29,01,39,5.60
2019,03,29,01,40,5.70
2019,03,29,01,41,5.70
2019,03,29,01,42,5.70
2019,03,29,01,43,5.70
2019,03,29,01,44,5.60
2019,03,29,01,45,5.60
2019,03,29,01,46,5.60
2019,03,29,01,47,5.60
2019,03,29,01,48,5.60
2019,03,29,01,49,5.60
2019,03,29,01,50,5.60
2019,03,29,01,51,5.60
2019,03,29,01,52,5.60
2019,03,29,01,53,5.60
2019,03,29,01,54,5.60
2019,03,29,01,55,5.60
2019,03,29,01,56,5.60
2019,03,29,01,57,5.60
2019,03,29,01,58,5.60
2019,03,29,01,59,5.60
2019,03,29,02,00,5.60
2019,03,29,02,01,5.60
2019,03,29,02,02,5.60
2019,03,29,02,03,5.60
2019,03,29,02,04,5.60
2019,03,29,02,05,5.60
2019,03,29,02,06,5.70
2019,03,29,02,07,5.70
2019,03,29,02,08,5.70
2019,03,29,02,09,5.70
2019,03,29,02,10,5.80
2019,03,29,02,11,5.80
2019,03,29,02,12,5.80
2019,03,29,02,13,5.80
2019,03,29,02,14,5.80
2019,03,29,02,15,5.90
2019,03,29,02,16,5.90
2019,03,29,02,17,5.90
2019,03,29,02,18,6.00
2019,03,29,02,19,6.00
2019,03,29,02,20,6.10
2019,03,29,02,21,6.10
2019,03,29,02,22,6.10
2019,03,29,02,23,6.10
2019,03,29,02,24,6.10
2019,03,29,02,25,6.10
2019,03,29,02,26,6.20
2019,03,29,02,27,6.20
2019,03,29,02,28,6.20
2019,03,29,02,29,6.20
2019,03,29,02,30,6.20
2019,03,29,02,31,6.20
2019,03,29,02,32,6.20
2019,03,29,02,33,6.20
2019,03,29,02,34,6.30
2019,03,29,02,35,6.30
2019,03,29,02,36,6.30
2019,03,29,02,37,6.30
2019,03,29,02,38,6.30
2019,03,29,02,39,6.30
2019,03,29,02,40,6.30
2019,03,29,02,41,6.30
2019,03,29,02,42,6.30
2019,03,29,02,43,6.30
2019,03,29,02,44,6.20
2019,03,29,02,45,6.20
2019,03,29,02,46,6.20
2019,03,29,02,47,6.20
2019,03,29,02,48,6.20
2019,03,29,02,49,6.20
2019,03,29,02,50,6.20
2019,03,29,02,51,6.20
2019,03,29,02,52,6.20
2019,03,29,02,53,6.20
2019,03,29,02,54,6.20
2019,03,29,02,55,6.20
2019,03,29,02,56,6.10
2019,03,29,02,57,6.10
2019,03,29,02,58,6.10
2019,03,29,02,59,6.10
2019,03,29,03,00,6.10
2019,03,29,03,01,6.10
2019,03,29,03,02,6.10
2019,03,29,03,03,6.10
2019,03,29,03,04,6.10
2019,03,29,03,05,6.10
2019,03,29,03,06,6.10
2019,03,29,03,07,6.10
2019,03,29,03,08,6.00
2019,03,29,03,09,6.00
2019,03,29,03,10,6.00
2019,03,29,03,11,6.00
2019,03,29,03,12,6.00
2019,03,29,03,13,6.00
2019,03,29,03,14,6.00
2019,03,29,03,15,6.00
2019,03,29,03,16,6.10
2019,03,29,03,17,6.10
2019,03,29,03,18,6.10
2019,03,29,03,19,6.10
2019,03,29,03,20,6.10
2019,03,29,03,21,6.10
2019,03,29,03,22,6.10
2019,03,29,03,23,6.10
2019,03,29,03,24,6.00
2019,03,29,03,25,6.00
2019,03,29,03,26,6.00
2019,03,29,03,27,5.90
2019,03,29,03,28,5.90
2019,03,29,03,29,5.90
2019,03,29,03,30,5.90
2019,03,29,03,31,5.90
2019,03,29,03,32,5.90
2019,03,29,03,33,5.80
2019,03,29,03,34,5.80
2019,03,29,03,35,5.80
2019,03,29,03,36,5.80
2019,03,29,03,37,5.80
2019,03,29,03,38,5.80
2019,03,29,03,39,5.80
2019,03,29,03,40,5.80
2019,03,29,03,41,5.80
2019,03,29,03,42,5.80
2019,03,29,03,43,5.80
2019,03,29,03,44,5.80
2019,03,29,03,45,5.80
2019,03,29,03,46,5.80
2019,03,29,03,47,5.70
2019,03,29,03,48,5.70
2019,03,29,03,49,5.70
2019,03,29,03,50,5.70
2019,03,29,03,51,5.60
2019,03,29,03,52,5.60
2019,03,29,03,53,5.60
2019,03,29,03,54,5.60
2019,03,29,03,55,5.60
2019,03,29,03,56,5.60
2019,03,29,03,57,5.60
2019,03,29,03,58,5.60
2019,03,29,03,59,5.60
2019,03,29,04,00,5.50
2019,03,29,04,01,5.50
2019,03,29,04,02,5.40
2019,03,29,04,03,5.40
2019,03,29,04,04,5.40
2019,03,29,04,05,5.40
2019,03,29,04,06,5.30
2019,03,29,04,07,5.30
2019,03,29,04,08,5.30
2019,03,29,04,09,5.30
2019,03,29,04,10,5.30
2019,03,29,04,11,5.30
2019,03,29,04,12,5.30
2019,03,29,04,13,5.30
2019,03,29,04,14,5.30
2019,03,29,04,15,5.30
2019,03,29,04,16,5.30
2019,03,29,04,17,5.40
2019,03,29,04,18,5.40
2019,03,29,04,19,5.40
2019,03,29,04,20,5.40
2019,03,29,04,21,5.40
2019,03,29,04,22,5.40
2019,03,29,04,23,5.40
2019,03,29,04,24,5.40
2019,03,29,04,25,5.40
2019,03,29,04,26,5.40
2019,03,29,04,27,5.30
2019,03,29,04,28,5.30
2019,03,29,04,29,5.30
2019,03,29,04,30,5.20
2019,03,29,04,31,5.20
2019,03,29,04,32,5.20
2019,03,29,04,33,5.10
2019,03,29,04,34,5.10
2019,03,29,04,35,5.10
2019,03,29,04,36,5.10
2019,03,29,04,37,5.10
2019,03,29,04,38,5.10
2019,03,29,04,39,5.10
2019,03,29,04,40,5.10
2019,03,29,04,41,5.00
2019,03,29,04,42,5.00
2019,03,29,04,43,5.00
2019,03,29,04,44,5.00
2019,03,29,04,45,5.00
2019,03,29,04,46,5.00
2019,03,29,04,47,4.90
2019,03,29,04,48,4.90
2019,03,29,04,49,4.90
2019,03,29,04,50,4.90
2019,03,29,04,51,4.90
2019,03,29,04,52,4.90
2019,03,29,04,53,4.90
2019,03,29,04,54,4.90
2019,03,29,04,55,4.90
2019,03,29,04,56,4.90
2019,03,29,04,57,5.00
2019,03,29,04,58,4.90
2019,03,29,04,59,4.90
2019,03,29,05,00,4.90
2019,03,29,05,01,4.90
2019,03,29,05,02,4.90
2019,03,29,05,03,4.80
2019,03,29,05,04,4.80
2019,03,29,05,05,4.80
2019,03,29,05,06,4.80
2019,03,29,05,07,4.80
2019,03,29,05,08,4.80
2019,03,29,05,09,4.70
2019,03,29,05,10,4.70
2019,03,29,05,11,4.70
2019,03,29,05,12,4.70
2019,03,29,05,13,4.70
2019,03,29,05,14,4.70
2019,03,29,05,15,4.70
2019,03,29,05,16,4.70
2019,03,29,05,17,4.70
2019,03,29,05,18,4.70
2019,03,29,05,19,4.70
2019,03,29,05,20,4.70
2019,03,29,05,21,4.70
2019,03,29,05,22,4.70
2019,03,29,05,23,4.80
2019,03,29,05,24,4.70
2019,03,29,05,25,4.70
2019,03,29,05,26,4.70
2019,03,29,05,27,4.70
2019,03,29,05,28,4.80
2019,03,29,05,29,4.80
2019,03,29,05,30,4.80
2019,03,29,05,31,4.80
2019,03,29,05,32,4.80
2019,03,29,05,33,4.80
2019,03,29,05,34,4.80
2019,03,29,05,35,4.80
2019,03,29,05,36,4.80
2019,03,29,05,37,4.90
2019,03,29,05,38,4.90
2019,03,29,05,39,4.90
2019,03,29,05,40,4.90
2019,03,29,05,41,5.00
2019,03,29,05,42,5.00
2019,03,29,05,43,5.00
2019,03,29,05,44,5.00
2019,03,29,05,45,5.00
2019,03,29,05,46,5.10
2019,03,29,05,47,5.10
2019,03,29,05,48,5.10
2019,03,29,05,49,5.10
2019,03,29,05,50,5.10
2019,03,29,05,51,5.10
2019,03,29,05,52,5.10
2019,03,29,05,53,5.10
2019,03,29,05,54,5.10
2019,03,29,05,55,5.10
2019,03,29,05,56,5.10
2019,03,29,05,57,5.10
2019,03,29,05,58,5.10
2019,03,29,05,59,5.10
2019,03,29,06,00,5.10
2019,03,29,06,01,5.10
2019,03,29,06,02,5.10
2019,03,29,06,03,5.10
2019,03,29,06,04,5.10
2019,03,29,06,05,5.10
2019,03,29,06,06,5.10
2019,03,29,06,07,5.10
2019,03,29,06,08,5.10
2019,03,29,06,09,5.10
2019,03,29,06,10,5.10
2019,03,29,06,11,5.10
2019,03,29,06,12,5.10
2019,03,29,06,13,5.10
2019,03,29,06,14,5.10
2019,03,29,06,15,5.10
2019,03,29,06,16,5.10
2019,03,29,06,17,5.10
2019,03,29,06,18,5.10
2019,03,29,06,19,5.10
2019,03,29,06,20,5.10
2019,03,29,06,21,5.10
2019,03,29,06,22,5.10
2019,03,29,06,23,5.10
2019,03,29,06,24,5.10
2019,03,29,06,25,5.10
2019,03,29,06,26,5.00
2019,03,29,06,27,5.00
2019,03,29,06,28,5.00
2019,03,29,06,29,5.00
2019,03,29,06,30,5.00
2019,03,29,06,31,5.00
2019,03,29,06,32,5.00
2019,03,29,06,33,5.00
2019,03,29,06,34,5.00
2019,03,29,06,35,4.90
2019,03,29,06,36,4.90
2019,03,29,06,37,4.90
2019,03,29,06,38,4.80
2019,03,29,06,39,4.80
2019,03,29,06,40,4.80
2019,03,29,06,41,4.80
2019,03,29,06,42,4.80
2019,03,29,06,43,4.80
2019,03,29,06,44,4.90
2019,03,29,06,45,4.90
2019,03,29,06,46,4.90
2019,03,29,06,47,4.90
2019,03,29,06,48,4.90
2019,03,29,06,49,4.90
2019,03,29,06,50,4.90
2019,03,29,06,51,4.90
2019,03,29,06,52,4.90
2019,03,29,06,53,4.90
2019,03,29,06,54,4.90
2019,03,29,06,55,4.90
2019,03,29,06,56,4.90
2019,03,29,06,57,4.90
2019,03,29,06,58,4.90
2019,03,29,06,59,4.90
2019,03,29,07,00,4.80
2019,03,29,07,01,4.80
2019,03,29,07,02,4.80
2019,03,29,07,03,4.70
2019,03,29,07,04,4.70
2019,03,29,07,05,4.60
2019,03,29,07,06,4.60
2019,03,29,07,07,4.60
2019,03,29,07,08,4.50
2019,03,29,07,09,4.50
2019,03,29,07,10,4.50
2019,03,29,07,11,4.40
2019,03,29,07,12,4.40
2019,03,29,07,13,4.50
2019,03,29,07,14,4.40
2019,03,29,07,15,4.50
2019,03,29,07,16,4.50
2019,03,29,07,17,4.50
2019,03,29,07,18,4.50
2019,03,29,07,19,4.50
2019,03,29,07,20,4.60
2019,03,29,07,21,4.60
2019,03,29,07,22,4.60
2019,03,29,07,23,4.60
2019,03,29,07,24,4.60
2019,03,29,07,25,4.60
2019,03,29,07,26,4.60
2019,03,29,07,27,4.60
2019,03,29,07,28,4.70
2019,03,29,07,29,4.70
2019,03,29,07,30,4.70
2019,03,29,07,31,4.70
2019,03,29,07,32,4.70
2019,03,29,07,33,4.70
2019,03,29,07,34,4.70
2019,03,29,07,35,4.70
2019,03,29,07,36,4.80
2019,03,29,07,37,4.80
2019,03,29,07,38,4.80
2019,03,29,07,39,4.80
2019,03,29,07,40,4.90
2019,03,29,07,41,4.90
2019,03,29,07,42,4.90
2019,03,29,07,43,4.90
2019,03,29,07,44,4.90
2019,03,29,07,45,4.90
2019,03,29,07,46,4.90
2019,03,29,07,47,4.90
2019,03,29,07,48,5.00
2019,03,29,07,49,5.00
2019,03,29,07,50,5.00
2019,03,29,07,51,5.00
2019,03,29,07,52,5.00
2019,03,29,07,53,5.00
2019,03,29,07,54,5.00
2019,03,29,07,55,5.10
2019,03,29,07,56,5.10
2019,03,29,07,57,5.10
2019,03,29,07,58,5.10
2019,03,29,07,59,5.20
2019,03,29,08,00,5.20
2019,03,29,08,01,5.30
2019,03,29,08,02,5.30
2019,03,29,08,03,5.30
2019,03,29,08,04,5.40
2019,03,29,08,05,5.40
2019,03,29,08,06,5.40
2019,03,29,08,07,5.50
2019,03,29,08,08,5.50
2019,03,29,08,09,5.60
2019,03,29,08,10,5.60
2019,03,29,08,11,5.70
2019,03,29,08,12,5.70
2019,03,29,08,13,5.70
2019,03,29,08,14,5.80
2019,03,29,08,15,5.80
2019,03,29,08,16,5.80
2019,03,29,08,17,5.90
2019,03,29,08,18,5.90
2019,03,29,08,19,6.00
2019,03,29,08,20,6.00
2019,03,29,08,21,6.00
2019,03,29,08,22,6.10
2019,03,29,08,23,6.10
2019,03,29,08,24,6.10
2019,03,29,08,25,6.10
2019,03,29,08,26,6.20
2019,03,29,08,27,6.20
2019,03,29,08,28,6.20
2019,03,29,08,29,6.20
2019,03,29,08,30,6.30
2019,03,29,08,31,6.30
2019,03,29,08,32,6.40
2019,03,29,08,33,6.40
2019,03,29,08,34,6.50
2019,03,29,08,35,6.50
2019,03,29,08,36,6.60
2019,03,29,08,37,6.60
2019,03,29,08,38,6.60
2019,03,29,08,39,6.70
2019,03,29,08,40,6.70
2019,03,29,08,41,6.80
2019,03,29,08,42,6.80
2019,03,29,08,43,6.80
2019,03,29,08,44,6.80
2019,03,29,08,45,6.90
2019,03,29,08,46,6.90
2019,03,29,08,47,6.90
2019,03,29,08,48,7.00
2019,03,29,08,49,7.00
2019,03,29,08,50,7.10
2019,03,29,08,51,7.10
2019,03,29,08,52,7.20
2019,03,29,08,53,7.30
2019,03,29,08,54,7.30
2019,03,29,08,55,7.30
2019,03,29,08,56,7.40
2019,03,29,08,57,7.40
2019,03,29,08,58,7.40
2019,03,29,08,59,7.40
2019,03,29,09,00,7.50
2019,03,29,09,01,7.50
2019,03,29,09,02,7.50
2019,03,29,09,03,7.60
2019,03,29,09,04,7.60
2019,03,29,09,05,7.60
2019,03,29,09,06,7.60
2019,03,29,09,07,7.60
2019,03,29,09,08,7.60
2019,03,29,09,09,7.60
2019,03,29,09,10,7.70
2019,03,29,09,11,7.70
2019,03,29,09,12,7.70
2019,03,29,09,13,7.70
2019,03,29,09,14,7.80
2019,03,29,09,15,7.70
2019,03,29,09,16,7.80
2019,03,29,09,17,7.80
2019,03,29,09,18,7.80
2019,03,29,09,19,7.80
2019,03,29,09,20,7.80
2019,03,29,09,21,7.80
2019,03,29,09,22,7.90
2019,03,29,09,23,7.90
2019,03,29,09,24,8.00
2019,03,29,09,25,8.00
2019,03,29,09,26,8.10
2019,03,29,09,27,8.20
2019,03,29,09,28,8.30
2019,03,29,09,29,8.40
2019,03,29,09,30,8.50
2019,03,29,09,31,8.60
2019,03,29,09,32,8.60
2019,03,29,09,33,8.70
2019,03,29,09,34,8.70
2019,03,29,09,35,8.70
2019,03,29,09,36,8.70
2019,03,29,09,37,8.70
2019,03,29,09,38,8.70
2019,03,29,09,39,8.70
2019,03,29,09,40,8.70
2019,03,29,09,41,8.70
2019,03,29,09,42,8.70
2019,03,29,09,43,8.70
2019,03,29,09,44,8.70
2019,03,29,09,45,8.70
2019,03,29,09,46,8.70
2019,03,29,09,47,8.70
2019,03,29,09,48,8.70
2019,03,29,09,49,8.60
2019,03,29,09,50,8.60
2019,03,29,09,51,8.60
2019,03,29,09,52,8.60
2019,03,29,09,53,8.60
2019,03,29,09,54,8.70
2019,03,29,09,55,8.70
2019,03,29,09,56,8.80
2019,03,29,09,57,8.90
2019,03,29,09,58,9.00
2019,03,29,09,59,9.10
2019,03,29,10,00,9.10
2019,03,29,10,01,9.20
2019,03,29,10,02,9.20
2019,03,29,10,03,9.20
2019,03,29,10,04,9.30
2019,03,29,10,05,9.40
2019,03,29,10,06,9.50
2019,03,29,10,07,9.50
2019,03,29,10,08,9.60
2019,03,29,10,09,9.60
2019,03,29,10,10,9.60
2019,03,29,10,11,9.70
2019,03,29,10,12,9.70
2019,03,29,10,13,9.60
2019,03,29,10,14,9.60
2019,03,29,10,15,9.60
2019,03,29,10,16,9.60
2019,03,29,10,17,9.70
2019,03,29,10,18,9.80
2019,03,29,10,19,9.80
2019,03,29,10,20,9.90
2019,03,29,10,21,9.90
2019,03,29,10,22,10.00
2019,03,29,10,23,10.10
2019,03,29,10,24,10.10
2019,03,29,10,25,10.30
2019,03,29,10,26,10.40
2019,03,29,10,27,10.50
2019,03,29,10,28,10.60
2019,03,29,10,29,10.70
2019,03,29,10,30,10.80
2019,03,29,10,31,10.80
2019,03,29,10,32,10.80
2019,03,29,10,33,10.80
2019,03,29,10,34,10.80
2019,03,29,10,35,10.80
2019,03,29,10,36,10.90
2019,03,29,10,37,10.90
2019,03,29,10,38,10.90
2019,03,29,10,39,11.00
2019,03,29,10,40,11.10
2019,03,29,10,41,11.10
2019,03,29,10,42,11.10
2019,03,29,10,43,11.20
2019,03,29,10,44,11.20
2019,03,29,10,45,11.20
2019,03,29,10,46,11.20
2019,03,29,10,47,11.20
2019,03,29,10,48,11.30
2019,03,29,10,49,11.40
2019,03,29,10,50,11.50
2019,03,29,10,51,11.50
2019,03,29,10,52,11.60
2019,03,29,10,53,11.60
2019,03,29,10,54,11.60
2019,03,29,10,55,11.70
2019,03,29,10,56,11.80
2019,03,29,10,57,11.80
2019,03,29,10,58,11.90
2019,03,29,10,59,12.00
2019,03,29,11,00,12.10
2019,03,29,11,01,12.30
2019,03,29,11,02,12.40
2019,03,29,11,03,12.40
2019,03,29,11,04,12.40
2019,03,29,11,05,12.40
2019,03,29,11,06,12.40
2019,03,29,11,07,12.30
2019,03,29,11,08,12.30
2019,03,29,11,09,12.40
2019,03,29,11,10,12.50
2019,03,29,11,11,12.60
2019,03,29,11,12,12.70
2019,03,29,11,13,12.70
2019,03,29,11,14,12.60
2019,03,29,11,15,12.50
2019,03,29,11,16,12.40
2019,03,29,11,17,12.30
2019,03,29,11,18,12.30
2019,03,29,11,19,12.30
2019,03,29,11,20,12.30
2019,03,29,11,21,12.40
2019,03,29,11,22,12.40
2019,03,29,11,23,12.50
2019,03,29,11,24,12.60
2019,03,29,11,25,12.70
2019,03,29,11,26,12.70
2019,03,29,11,27,12.70
2019,03,29,11,28,12.80
2019,03,29,11,29,12.80
2019,03,29,11,30,12.90
2019,03,29,11,31,12.90
2019,03,29,11,32,12.90
2019,03,29,11,33,12.90
2019,03,29,11,34,12.90
2019,03,29,11,35,12.90
2019,03,29,11,36,12.90
2019,03,29,11,37,13.00
2019,03,29,11,38,13.10
2019,03,29,11,39,13.10
2019,03,29,11,40,13.00
2019,03,29,11,41,13.00
2019,03,29,11,42,13.00
2019,03,29,11,43,13.00
2019,03,29,11,44,13.10
2019,03,29,11,45,13.10
2019,03,29,11,46,13.10
2019,03,29,11,47,13.20
2019,03,29,11,48,13.20
2019,03,29,11,49,13.20
2019,03,29,11,50,13.10
2019,03,29,11,51,13.20
2019,03,29,11,52,13.20
2019,03,29,11,53,13.20
2019,03,29,11,54,13.20
2019,03,29,11,55,13.20
2019,03,29,11,56,13.30
2019,03,29,11,57,13.40
2019,03,29,11,58,13.50
2019,03,29,11,59,13.50
2019,03,29,12,00,13.50
2019,03,29,12,01,13.40
2019,03,29,12,02,13.30
2019,03,29,12,03,13.30
2019,03,29,12,04,13.20
2019,03,29,12,05,13.10
2019,03,29,12,06,13.10
2019,03,29,12,07,13.10
2019,03,29,12,08,13.10
2019,03,29,12,09,13.20
2019,03,29,12,10,13.30
2019,03,29,12,11,13.50
2019,03,29,12,12,13.60
2019,03,29,12,13,13.70
2019,03,29,12,14,13.70
2019,03,29,12,15,13.80
2019,03,29,12,16,13.90
2019,03,29,12,17,14.00
2019,03,29,12,18,14.10
2019,03,29,12,19,14.20
2019,03,29,12,20,14.30
2019,03,29,12,21,14.40
2019,03,29,12,22,14.40
2019,03,29,12,23,14.40
2019,03,29,12,24,14.30
2019,03,29,12,25,14.20
2019,03,29,12,26,14.20
2019,03,29,12,27,14.20
2019,03,29,12,28,14.10
2019,03,29,12,29,14.20
2019,03,29,12,30,14.20
2019,03,29,12,31,14.30
2019,03,29,12,32,14.40
2019,03,29,12,33,14.40
2019,03,29,12,34,14.40
2019,03,29,12,35,14.40
2019,03,29,12,36,14.40
2019,03,29,12,37,14.30
2019,03,29,12,38,14.30
2019,03,29,12,39,14.20
2019,03,29,12,40,14.10
2019,03,29,12,41,14.00
2019,03,29,12,42,14.00
2019,03,29,12,43,14.00
2019,03,29,12,44,14.00
2019,03,29,12,45,14.00
2019,03,29,12,46,14.10
2019,03,29,12,47,14.10
2019,03,29,12,48,14.10
2019,03,29,12,49,14.10
2019,03,29,12,50,14.20
2019,03,29,12,51,14.20
2019,03,29,12,52,14.20
2019,03,29,12,53,14.20
2019,03,29,12,54,14.30
2019,03,29,12,55,14.30
2019,03,29,12,56,14.40
2019,03,29,12,57,14.40
2019,03,29,12,58,14.40
2019,03,29,12,59,14.40
2019,03,29,13,00,14.40
2019,03,29,13,01,14.40
2019,03,29,13,02,14.40
2019,03,29,13,03,14.40
2019,03,29,13,04,14.40
2019,03,29,13,05,14.40
2019,03,29,13,06,14.40
2019,03,29,13,07,14.40
2019,03,29,13,08,14.40
2019,03,29,13,09,14.40
2019,03,29,13,10,14.40
2019,03,29,13,11,14.50
2019,03,29,13,12,14.60
2019,03,29,13,13,14.70
2019,03,29,13,14,14.70
2019,03,29,13,15,14.80
2019,03,29,13,16,14.80
2019,03,29,13,17,14.80
2019,03,29,13,18,14.80
2019,03,29,13,19,14.80
2019,03,29,13,20,14.90
2019,03,29,13,21,15.00
2019,03,29,13,22,15.10
2019,03,29,13,23,15.30
2019,03,29,13,24,15.40
2019,03,29,13,25,15.50
2019,03,29,13,26,15.60
2019,03,29,13,27,15.60
2019,03,29,13,28,15.60
2019,03,29,13,29,15.60
2019,03,29,13,30,15.60
2019,03,29,13,31,15.50
2019,03,29,13,32,15.40
2019,03,29,13,33,15.30
2019,03,29,13,34,15.20
2019,03,29,13,35,15.10
2019,03,29,13,36,14.90
2019,03,29,13,37,14.90
2019,03,29,13,38,14.90
2019,03,29,13,39,14.90
2019,03,29,13,40,15.00
2019,03,29,13,41,15.10
2019,03,29,13,42,15.10
2019,03,29,13,43,15.10
2019,03,29,13,44,15.20
2019,03,29,13,45,15.20
2019,03,29,13,46,15.30
2019,03,29,13,47,15.50
2019,03,29,13,48,15.60
2019,03,29,13,49,15.60
2019,03,29,13,50,15.60
2019,03,29,13,51,15.60
2019,03,29,13,52,15.60
2019,03,29,13,53,15.60
2019,03,29,13,54,15.60
2019,03,29,13,55,15.60
2019,03,29,13,56,15.60
2019,03,29,13,57,15.50
2019,03,29,13,58,15.50
2019,03,29,13,59,15.40
2019,03,29,14,00,15.40
2019,03,29,14,01,15.40
2019,03,29,14,02,15.40
2019,03,29,14,03,15.30
2019,03,29,14,04,15.20
2019,03,29,14,05,15.10
2019,03,29,14,06,15.10
2019,03,29,14,07,15.10
2019,03,29,14,08,15.10
2019,03,29,14,09,15.20
2019,03,29,14,10,15.30
2019,03,29,14,11,15.40
2019,03,29,14,12,15.50
2019,03,29,14,13,15.60
2019,03,29,14,14,15.70
2019,03,29,14,15,15.70
2019,03,29,14,16,15.80
2019,03,29,14,17,15.80
2019,03,29,14,18,15.80
2019,03,29,14,19,15.80
2019,03,29,14,20,15.90
2019,03,29,14,21,16.00
2019,03,29,14,22,16.10
2019,03,29,14,23,16.10
2019,03,29,14,24,16.00
2019,03,29,14,25,16.10
2019,03,29,14,26,16.10
2019,03,29,14,27,16.10
2019,03,29,14,28,16.10
2019,03,29,14,29,16.00
2019,03,29,14,30,15.90
2019,03,29,14,31,15.80
2019,03,29,14,32,15.80
2019,03,29,14,33,15.80
2019,03,29,14,34,15.80
2019,03,29,14,35,15.80
2019,03,29,14,36,15.80
2019,03,29,14,37,15.80
2019,03,29,14,38,15.80
2019,03,29,14,39,15.80
2019,03,29,14,40,15.80
2019,03,29,14,41,15.80
2019,03,29,14,42,15.90
2019,03,29,14,43,15.90
2019,03,29,14,44,15.90
2019,03,29,14,45,16.00
2019,03,29,14,46,16.00
2019,03,29,14,47,16.00
2019,03,29,14,48,16.10
2019,03,29,14,49,16.10
2019,03,29,14,50,16.20
2019,03,29,14,51,16.30
2019,03,29,14,52,16.40
2019,03,29,14,53,16.50
2019,03,29,14,54,16.60
2019,03,29,14,55,16.70
2019,03,29,14,56,16.90
2019,03,29,14,57,16.90
2019,03,29,14,58,16.80
2019,03,29,14,59,16.70
2019,03,29,15,00,16.60
2019,03,29,15,01,16.60
2019,03,29,15,02,16.60
2019,03,29,15,03,16.60
2019,03,29,15,04,16.50
2019,03,29,15,05,16.50
2019,03,29,15,06,16.60
2019,03,29,15,07,16.60
2019,03,29,15,08,16.60
2019,03,29,15,09,16.60
2019,03,29,15,10,16.70
2019,03,29,15,11,16.60
2019,03,29,15,12,16.60
2019,03,29,15,13,16.70
2019,03,29,15,14,16.70
2019,03,29,15,15,16.70
2019,03,29,15,16,16.80
2019,03,29,15,17,16.90
2019,03,29,15,18,17.00
2019,03,29,15,19,17.00
2019,03,29,15,20,17.00
2019,03,29,15,21,16.90
2019,03,29,15,22,16.70
2019,03,29,15,23,16.70
2019,03,29,15,24,16.70
2019,03,29,15,25,16.70
2019,03,29,15,26,16.80
2019,03,29,15,27,16.80
2019,03,29,15,28,16.80
2019,03,29,15,29,16.70
2019,03,29,15,30,16.50
2019,03,29,15,31,16.40
2019,03,29,15,32,16.30
2019,03,29,15,33,16.20
2019,03,29,15,34,16.20
2019,03,29,15,35,16.20
2019,03,29,15,36,16.30
2019,03,29,15,37,16.30
2019,03,29,15,38,16.30
2019,03,29,15,39,16.30
2019,03,29,15,40,16.40
2019,03,29,15,41,16.40
2019,03,29,15,42,16.30
2019,03,29,15,43,16.30
2019,03,29,15,44,16.30
2019,03,29,15,45,16.30
2019,03,29,15,46,16.40
2019,03,29,15,47,16.60
2019,03,29,15,48,16.60
2019,03,29,15,49,16.60
2019,03,29,15,50,16.50
2019,03,29,15,51,16.40
2019,03,29,15,52,16.30
2019,03,29,15,53,16.30
2019,03,29,15,54,16.30
2019,03,29,15,55,16.30
2019,03,29,15,56,16.30
2019,03,29,15,57,16.30
2019,03,29,15,58,16.30
2019,03,29,15,59,16.20
2019,03,29,16,00,16.20
2019,03,29,16,01,16.20
2019,03,29,16,02,16.30
2019,03,29,16,03,16.30
2019,03,29,16,04,16.30
2019,03,29,16,05,16.20
2019,03,29,16,06,16.30
2019,03,29,16,07,16.30
2019,03,29,16,08,16.40
2019,03,29,16,09,16.50
2019,03,29,16,10,16.50
2019,03,29,16,11,16.60
2019,03,29,16,12,16.60
2019,03,29,16,13,16.50
2019,03,29,16,14,16.40
2019,03,29,16,15,16.40
2019,03,29,16,16,16.40
2019,03,29,16,17,16.40
2019,03,29,16,18,16.40
2019,03,29,16,19,16.40
2019,03,29,16,20,16.40
2019,03,29,16,21,16.40
2019,03,29,16,22,16.40
2019,03,29,16,23,16.40
2019,03,29,16,24,16.40
2019,03,29,16,25,16.50
2019,03,29,16,26,16.50
2019,03,29,16,27,16.50
2019,03,29,16,28,16.50
2019,03,29,16,29,16.40
2019,03,29,16,30,16.30
2019,03,29,16,31,16.40
2019,03,29,16,32,16.40
2019,03,29,16,33,16.40
2019,03,29,16,34,16.40
2019,03,29,16,35,16.40
2019,03,29,16,36,16.40
2019,03,29,16,37,16.30
2019,03,29,16,38,16.30
2019,03,29,16,39,16.20
2019,03,29,16,40,16.20
2019,03,29,16,41,16.30
2019,03,29,16,42,16.30
2019,03,29,16,43,16.40
2019,03,29,16,44,16.40
2019,03,29,16,45,16.40
2019,03,29,16,46,16.50
2019,03,29,16,47,16.60
2019,03,29,16,48,16.50
2019,03,29,16,49,16.50
2019,03,29,16,50,16.50
2019,03,29,16,51,16.40
2019,03,29,16,52,16.40
2019,03,29,16,53,16.30
2019,03,29,16,54,16.30
2019,03,29,16,55,16.30
2019,03,29,16,56,16.30
2019,03,29,16,57,16.30
2019,03,29,16,58,16.30
2019,03,29,16,59,16.40
2019,03,29,17,00,16.40
2019,03,29,17,01,16.50
2019,03,29,17,02,16.50
2019,03,29,17,03,16.50
2019,03,29,17,04,16.40
2019,03,29,17,05,16.40
2019,03,29,17,06,16.40
2019,03,29,17,07,16.30
2019,03,29,17,08,16.30
2019,03,29,17,09,16.30
2019,03,29,17,10,16.30
2019,03,29,17,11,16.30
2019,03,29,17,12,16.30
2019,03,29,17,13,16.20
2019,03,29,17,14,16.20
2019,03,29,17,15,16.20
2019,03,29,17,16,16.20
2019,03,29,17,17,16.20
2019,03,29,17,18,16.20
2019,03,29,17,19,16.10
2019,03,29,17,20,16.10
2019,03,29,17,21,16.10
2019,03,29,17,22,16.10
2019,03,29,17,23,16.10
2019,03,29,17,24,16.10
2019,03,29,17,25,16.10
2019,03,29,17,26,16.10
2019,03,29,17,27,16.10
2019,03,29,17,28,16.10
2019,03,29,17,29,16.10
2019,03,29,17,30,16.10
2019,03,29,17,31,16.10
2019,03,29,17,32,16.00
2019,03,29,17,33,16.00
2019,03,29,17,34,15.90
2019,03,29,17,35,15.90
2019,03,29,17,36,15.90
2019,03,29,17,37,15.90
2019,03,29,17,38,15.90
2019,03,29,17,39,15.90
2019,03,29,17,40,15.90
2019,03,29,17,41,15.80
2019,03,29,17,42,15.80
2019,03,29,17,43,15.80
2019,03,29,17,44,15.90
2019,03,29,17,45,15.90
2019,03,29,17,46,15.90